,,,PA_Meas_PMT16A,,PR_Meas_QMR101_102,,RH_Meas_QMH101,,SR_Meas_QMS101,,TA_Meas_QMH101,,GenWind,,GenWind,
date,time,status,PA,status,PR,status,RH,status,SR,status,TA,status,DirAvg,status,SpdAvg,
2010-07-16, 00:00:04,VALID,1003.33,VALID,0,VALID,85.2985,VALID,0,VALID,26.3128,VALID,89,VALID,0.595312,
2010-07-16, 00:01:04,VALID,1003.36,VALID,0,VALID,85.329,VALID,0,VALID,26.2913,VALID,100,VALID,0.821094,
2010-07-16, 00:02:04,VALID,1003.35,VALID,0,VALID,85.3138,VALID,0,VALID,26.2913,VALID,80,VALID,0.828125,
2010-07-16, 00:03:04,VALID,1003.35,VALID,0,VALID,85.3672,VALID,0,VALID,26.2913,VALID,64,VALID,0.594922,
2010-07-16, 00:04:04,VALID,1003.31,VALID,0,VALID,85.5503,VALID,0.100563,VALID,26.2524,VALID,49,VALID,0.317578,
2010-07-16, 00:05:04,VALID,1003.31,VALID,0,VALID,85.6647,VALID,0,VALID,26.2134,VALID,67,VALID,0.559375,
2010-07-16, 00:06:04,VALID,1003.27,VALID,0,VALID,85.7868,VALID,0.100563,VALID,26.194,VALID,28,VALID,0.953906,
2010-07-16, 00:07:04,VALID,1003.29,VALID,0,VALID,85.9165,VALID,0.100563,VALID,26.155,VALID,24,VALID,0.472266,
2010-07-16, 00:08:04,VALID,1003.34,VALID,0,VALID,86.1911,VALID,0,VALID,26.116,VALID,50,VALID,0.644922,
2010-07-16, 00:09:04,VALID,1003.33,VALID,0,VALID,86.3971,VALID,0,VALID,26.0771,VALID,50,VALID,0.456641,
2010-07-16, 00:10:04,VALID,1003.32,VALID,0,VALID,86.5115,VALID,0.100563,VALID,26.0596,VALID,29,VALID,0.384766,
2010-07-16, 00:11:04,VALID,1003.29,VALID,0,VALID,86.542,VALID,0.100563,VALID,26.0576,VALID,29,VALID,0.940234,
2010-07-16, 00:12:04,VALID,1003.33,VALID,0,VALID,86.5954,VALID,0,VALID,26.0576,VALID,17,VALID,1.0207,
2010-07-16, 00:13:04,VALID,1003.31,VALID,0,VALID,86.5115,VALID,0,VALID,26.0791,VALID,13,VALID,0.485547,
2010-07-16, 00:14:04,VALID,1003.26,VALID,0,VALID,86.6107,VALID,0,VALID,26.0576,VALID,40,VALID,0.803516,
2010-07-16, 00:15:04,VALID,1003.24,VALID,0,VALID,86.5878,VALID,0,VALID,26.0381,VALID,73,VALID,0.822656,
2010-07-16, 00:16:04,VALID,1003.23,VALID,0,VALID,86.542,VALID,0,VALID,26.0791,VALID,44,VALID,0.860156,
2010-07-16, 00:17:04,VALID,1003.21,VALID,0,VALID,86.4581,VALID,0,VALID,26.0791,VALID,15,VALID,0.839453,
2010-07-16, 00:18:04,VALID,1003.22,VALID,0,VALID,86.3513,VALID,0,VALID,26.0966,VALID,17,VALID,0.476563,
2010-07-16, 00:19:04,VALID,1003.23,VALID,0,VALID,86.2826,VALID,0,VALID,26.118,VALID,18,VALID,0.339844,
2010-07-16, 00:20:04,VALID,1003.24,VALID,0,VALID,86.2292,VALID,0,VALID,26.157,VALID,29,VALID,0.682031,
2010-07-16, 00:21:04,VALID,1003.23,VALID,0,VALID,86.0461,VALID,0,VALID,26.1784,VALID,20,VALID,0.387891,
2010-07-16, 00:22:04,VALID,1003.21,VALID,0,VALID,86.2826,VALID,0,VALID,26.0985,VALID,55,VALID,0.3875,
2010-07-16, 00:23:04,VALID,1003.25,VALID,0,VALID,86.5191,VALID,0,VALID,26.0596,VALID,34,VALID,0.678125,
2010-07-16, 00:24:04,VALID,1003.26,VALID,0,VALID,86.5115,VALID,0,VALID,26.0596,VALID,67,VALID,0.970312,
2010-07-16, 00:25:04,VALID,1003.27,VALID,0,VALID,86.4505,VALID,0,VALID,26.1005,VALID,75,VALID,0.453906,
2010-07-16, 00:26:04,VALID,1003.26,VALID,0,VALID,86.481,VALID,0,VALID,26.081,VALID,360,VALID,0.463672,
2010-07-16, 00:27:04,VALID,1003.23,VALID,0,VALID,86.5573,VALID,0,VALID,26.0596,VALID,19,VALID,0.742969,
2010-07-16, 00:28:04,VALID,1003.22,VALID,0,VALID,86.5649,VALID,0,VALID,26.0985,VALID,74,VALID,0.710156,
2010-07-16, 00:29:04,VALID,1003.21,VALID,0,VALID,86.4657,VALID,0,VALID,26.118,VALID,32,VALID,0.528516,
2010-07-16, 00:30:04,VALID,1003.2,VALID,0,VALID,86.3894,VALID,0,VALID,26.0966,VALID,32,VALID,0.687109,
2010-07-16, 00:31:04,VALID,1003.19,VALID,0,VALID,86.2674,VALID,0,VALID,26.116,VALID,3,VALID,0.405859,
2010-07-16, 00:32:04,VALID,1003.22,VALID,0,VALID,86.3589,VALID,0,VALID,26.0946,VALID,36,VALID,0.449609,
2010-07-16, 00:33:04,VALID,1003.21,VALID,0,VALID,86.3437,VALID,0,VALID,26.116,VALID,70,VALID,0.333594,
2010-07-16, 00:34:04,VALID,1003.21,VALID,0,VALID,86.3742,VALID,0,VALID,26.0966,VALID,60,VALID,0.495313,
2010-07-16, 00:35:04,VALID,1003.18,VALID,0,VALID,86.4123,VALID,0,VALID,26.0576,VALID,31,VALID,0.909766,
2010-07-16, 00:36:04,VALID,1003.19,VALID,0,VALID,86.4886,VALID,0,VALID,26.0576,VALID,28,VALID,0.746484,
2010-07-16, 00:37:04,VALID,1003.16,VALID,0,VALID,86.542,VALID,0,VALID,26.0381,VALID,17,VALID,0.783594,
2010-07-16, 00:38:04,VALID,1003.19,VALID,0,VALID,86.7251,VALID,0,VALID,26.0576,VALID,29,VALID,0.766406,
2010-07-16, 00:39:04,VALID,1003.2,VALID,0,VALID,86.6031,VALID,0,VALID,26.0576,VALID,19,VALID,0.337891,
2010-07-16, 00:40:04,VALID,1003.22,VALID,0,VALID,86.6565,VALID,0,VALID,26.0187,VALID,20,VALID,0.25,
2010-07-16, 00:41:04,VALID,1003.24,VALID,0,VALID,86.7404,VALID,0,VALID,25.9797,VALID,20,VALID,0.246484,
2010-07-16, 00:42:04,VALID,1003.21,VALID,0,VALID,86.8777,VALID,0,VALID,26.0012,VALID,38,VALID,0.64375,
2010-07-16, 00:43:04,VALID,1003.16,VALID,0,VALID,86.8929,VALID,0,VALID,25.9602,VALID,25,VALID,0.641797,
2010-07-16, 00:44:04,VALID,1003.17,VALID,0,VALID,86.9464,VALID,0,VALID,25.9602,VALID,21,VALID,0.426953,
2010-07-16, 00:45:04,VALID,1003.16,VALID,0,VALID,86.9998,VALID,0,VALID,25.9602,VALID,356,VALID,0.455078,
2010-07-16, 00:46:04,VALID,1003.15,VALID,0,VALID,87.0608,VALID,0,VALID,25.9408,VALID,39,VALID,0.466016,
2010-07-16, 00:47:04,VALID,1003.13,VALID,0,VALID,87.1905,VALID,0.100563,VALID,25.9193,VALID,48,VALID,0.702344,
2010-07-16, 00:48:04,VALID,1003.13,VALID,0,VALID,87.2515,VALID,0,VALID,25.9622,VALID,35,VALID,1.27734,
2010-07-16, 00:49:04,VALID,1003.12,VALID,0,VALID,87.0913,VALID,0,VALID,25.9602,VALID,36,VALID,0.544531,
2010-07-16, 00:50:04,VALID,1003.13,VALID,0,VALID,87.0837,VALID,0.100563,VALID,25.9213,VALID,360,VALID,0.401563,
2010-07-16, 00:51:04,VALID,1003.12,VALID,0,VALID,87.4499,VALID,0,VALID,25.8823,VALID,18,VALID,1.00937,
2010-07-16, 00:52:04,VALID,1003.11,VALID,0,VALID,87.4575,VALID,0,VALID,25.8823,VALID,7,VALID,0.621094,
2010-07-16, 00:53:04,VALID,1003.11,VALID,0,VALID,87.4041,VALID,0,VALID,25.8823,VALID,20,VALID,0.258594,
2010-07-16, 00:54:04,VALID,1003.09,VALID,0,VALID,87.4727,VALID,0,VALID,25.8434,VALID,20,VALID,0.133984,
2010-07-16, 00:55:04,VALID,1003.06,VALID,0,VALID,87.6177,VALID,0,VALID,25.785,VALID,17,VALID,0.392969,
2010-07-16, 00:56:04,VALID,1003.05,VALID,0,VALID,87.7855,VALID,0,VALID,25.7674,VALID,343,VALID,0.498828,
2010-07-16, 00:57:04,VALID,1003,VALID,0,VALID,88.0831,VALID,0,VALID,25.7285,VALID,356,VALID,0,
2010-07-16, 00:58:04,VALID,1002.98,VALID,0,VALID,88.2661,VALID,0,VALID,25.6292,VALID,358,VALID,0.538672,
2010-07-16, 00:59:04,VALID,1003,VALID,0,VALID,88.5637,VALID,0,VALID,25.5921,VALID,358,VALID,0.246875,
2010-07-16, 01:00:04,VALID,1002.98,VALID,0,VALID,89.1358,VALID,0,VALID,25.4928,VALID,348,VALID,0.612109,
2010-07-16, 01:01:04,VALID,1002.96,VALID,0,VALID,90.6616,VALID,0,VALID,25.4948,VALID,345,VALID,0.305469,
2010-07-16, 01:02:04,VALID,1003,VALID,0,VALID,89.8835,VALID,0,VALID,25.4753,VALID,345,VALID,0.584375,
2010-07-16, 01:03:04,VALID,1002.99,VALID,0,VALID,90.3336,VALID,0,VALID,25.3974,VALID,353,VALID,0.673047,
2010-07-16, 01:04:04,VALID,1002.99,VALID,0,VALID,92.2484,VALID,0,VALID,25.337,VALID,353,VALID,0.796094,
2010-07-16, 01:05:04,VALID,1003.01,VALID,0,VALID,93.7437,VALID,0,VALID,25.2397,VALID,358,VALID,0.627734,
2010-07-16, 01:06:04,VALID,1003.02,VALID,0,VALID,98.0845,VALID,0,VALID,25.1423,VALID,5,VALID,0,
2010-07-16, 01:07:04,VALID,1003,VALID,0,VALID,101.456,VALID,0,VALID,25.0858,VALID,5,VALID,0,
2010-07-16, 01:08:04,VALID,1003.05,VALID,0,VALID,103.86,VALID,0,VALID,25.0469,VALID,5,VALID,0.148047,
2010-07-16, 01:09:04,VALID,1003.05,VALID,0,VALID,104,VALID,0,VALID,25.006,VALID,5,VALID,0,
2010-07-16, 01:10:04,VALID,1003.04,VALID,0,VALID,104,VALID,0,VALID,24.9495,VALID,33,VALID,0.000390625,
2010-07-16, 01:11:04,VALID,1003.02,VALID,0,VALID,104,VALID,0,VALID,24.9671,VALID,32,VALID,0.389453,
2010-07-16, 01:12:04,VALID,1003,VALID,0,VALID,104,VALID,0.100563,VALID,24.9457,VALID,32,VALID,0.314063,
2010-07-16, 01:13:04,VALID,1003.01,VALID,0,VALID,104,VALID,0,VALID,24.9671,VALID,32,VALID,0.244531,
2010-07-16, 01:14:04,VALID,1003.03,VALID,0,VALID,104,VALID,0,VALID,25.0255,VALID,69,VALID,0.592578,
2010-07-16, 01:15:04,VALID,1003.01,VALID,0,VALID,104,VALID,0,VALID,25.0839,VALID,59,VALID,0.309375,
2010-07-16, 01:16:04,VALID,1003.02,VALID,0,VALID,104,VALID,0,VALID,25.1248,VALID,66,VALID,0.354297,
2010-07-16, 01:17:04,VALID,1003.02,VALID,0,VALID,104,VALID,0,VALID,25.2221,VALID,74,VALID,0.341406,
2010-07-16, 01:18:04,VALID,1003.02,VALID,0,VALID,104,VALID,0,VALID,25.2416,VALID,35,VALID,0.428906,
2010-07-16, 01:19:04,VALID,1002.99,VALID,0,VALID,104,VALID,0,VALID,25.2221,VALID,59,VALID,0.952344,
2010-07-16, 01:20:04,VALID,1002.97,VALID,0,VALID,104,VALID,0,VALID,25.2221,VALID,60,VALID,0.588281,
2010-07-16, 01:21:04,VALID,1002.99,VALID,0,VALID,104,VALID,0,VALID,25.3,VALID,59,VALID,0.316016,
2010-07-16, 01:22:04,VALID,1003,VALID,0,VALID,104,VALID,0,VALID,25.339,VALID,64,VALID,0.173438,
2010-07-16, 01:23:04,VALID,1003.03,VALID,0,VALID,104,VALID,0,VALID,25.3993,VALID,67,VALID,0.307031,
2010-07-16, 01:24:04,VALID,1003.04,VALID,0,VALID,104,VALID,0,VALID,25.3974,VALID,89,VALID,0.691406,
2010-07-16, 01:25:04,VALID,1003.1,VALID,0,VALID,104,VALID,0,VALID,25.4753,VALID,79,VALID,0.389453,
2010-07-16, 01:26:04,VALID,1003.09,VALID,0,VALID,102.158,VALID,0,VALID,25.4948,VALID,21,VALID,0.416016,
2010-07-16, 01:27:04,VALID,1003.11,VALID,0,VALID,99.7629,VALID,0,VALID,25.5142,VALID,21,VALID,0.265234,
2010-07-16, 01:28:04,VALID,1003.11,VALID,0,VALID,98.7406,VALID,0,VALID,25.4948,VALID,21,VALID,0,
2010-07-16, 01:29:04,VALID,1003.09,VALID,0,VALID,98.8627,VALID,0,VALID,25.4734,VALID,21,VALID,0,
2010-07-16, 01:30:04,VALID,1003.06,VALID,0,VALID,100.587,VALID,0,VALID,25.4948,VALID,20,VALID,0,
2010-07-16, 01:31:04,VALID,1003.06,VALID,0,VALID,99.5569,VALID,0.100563,VALID,25.5318,VALID,20,VALID,0,
2010-07-16, 01:32:04,VALID,1003.12,VALID,0,VALID,99.3891,VALID,0.100563,VALID,25.4928,VALID,20,VALID,0.0300781,
2010-07-16, 01:33:04,VALID,1003.12,VALID,0,VALID,101.304,VALID,0.100563,VALID,25.413,VALID,13,VALID,0.407031,
2010-07-16, 01:34:04,VALID,1003.12,VALID,0,VALID,102.868,VALID,0,VALID,25.3955,VALID,13,VALID,0.0328125,
2010-07-16, 01:35:04,VALID,1003.12,VALID,0,VALID,103.898,VALID,0.100563,VALID,25.376,VALID,13,VALID,0,
2010-07-16, 01:36:04,VALID,1003.05,VALID,0,VALID,104,VALID,0.100563,VALID,25.3351,VALID,13,VALID,0.455078,
2010-07-16, 01:37:04,VALID,1003.03,VALID,0,VALID,104,VALID,0,VALID,25.3565,VALID,13,VALID,0.176953,
2010-07-16, 01:38:04,VALID,1003.06,VALID,0,VALID,104,VALID,0.100563,VALID,25.337,VALID,9,VALID,0.611328,
2010-07-16, 01:39:04,VALID,1003.04,VALID,0,VALID,104,VALID,0.100563,VALID,25.2767,VALID,1,VALID,0.951563,
2010-07-16, 01:40:04,VALID,1003.08,VALID,0,VALID,104,VALID,0.100563,VALID,25.2378,VALID,359,VALID,0.898047,
2010-07-16, 01:41:04,VALID,1003.1,VALID,0,VALID,104,VALID,0.100563,VALID,25.2007,VALID,2,VALID,0.949219,
2010-07-16, 01:42:04,VALID,1003.11,VALID,0.5,VALID,104,VALID,0.100563,VALID,25.1423,VALID,8,VALID,0.654688,
2010-07-16, 01:43:04,VALID,1003.13,VALID,0,VALID,104,VALID,0.100563,VALID,25.1404,VALID,82,VALID,1.39922,
2010-07-16, 01:44:04,VALID,1003.14,VALID,0,VALID,104,VALID,0.100563,VALID,25.2007,VALID,85,VALID,0.519922,
2010-07-16, 01:45:04,VALID,1003.1,VALID,0.5,VALID,104,VALID,0.100563,VALID,25.2572,VALID,96,VALID,0.859766,
2010-07-16, 01:46:04,VALID,1003.09,VALID,0,VALID,104,VALID,0,VALID,25.339,VALID,122,VALID,0.690625,
2010-07-16, 01:47:04,VALID,1003.05,VALID,0.5,VALID,104,VALID,0,VALID,25.3779,VALID,117,VALID,0.883594,
2010-07-16, 01:48:04,VALID,1003.11,VALID,0,VALID,104,VALID,0,VALID,25.3584,VALID,108,VALID,1.2875,
2010-07-16, 01:49:04,VALID,1003.06,VALID,0,VALID,104,VALID,0,VALID,25.3584,VALID,93,VALID,0.727344,
2010-07-16, 01:50:04,VALID,1003.04,VALID,0.5,VALID,104,VALID,0,VALID,25.3176,VALID,86,VALID,0.349609,
2010-07-16, 01:51:04,VALID,1003.06,VALID,0,VALID,104,VALID,0,VALID,25.2806,VALID,41,VALID,0.614453,
2010-07-16, 01:52:04,VALID,1003.03,VALID,0,VALID,104,VALID,0,VALID,25.2221,VALID,2,VALID,0.963672,
2010-07-16, 01:53:04,VALID,1003.03,VALID,0,VALID,104,VALID,0,VALID,25.0839,VALID,2,VALID,0.880078,
2010-07-16, 01:54:04,VALID,1003.04,VALID,0,VALID,104,VALID,0,VALID,25.006,VALID,360,VALID,0.888672,
2010-07-16, 01:55:04,VALID,1003.01,VALID,0,VALID,104,VALID,0,VALID,24.969,VALID,348,VALID,1.01563,
2010-07-16, 01:56:04,VALID,1002.98,VALID,0,VALID,104,VALID,0,VALID,24.9087,VALID,353,VALID,1.04883,
2010-07-16, 01:57:04,VALID,1002.99,VALID,0,VALID,104,VALID,0,VALID,24.8697,VALID,353,VALID,0.782422,
2010-07-16, 01:58:04,VALID,1002.99,VALID,0,VALID,104,VALID,0,VALID,24.8503,VALID,352,VALID,0.564453,
2010-07-16, 01:59:04,VALID,1002.98,VALID,0,VALID,104,VALID,0,VALID,24.8522,VALID,345,VALID,0.667578,
2010-07-16, 02:00:04,VALID,1002.96,VALID,0,VALID,104,VALID,0,VALID,24.8113,VALID,354,VALID,0.739453,
2010-07-16, 02:01:04,VALID,1002.99,VALID,0,VALID,104,VALID,0,VALID,24.7937,VALID,358,VALID,0.633984,
2010-07-16, 02:02:04,VALID,1002.97,VALID,0,VALID,104,VALID,0,VALID,24.7743,VALID,358,VALID,0.625,
2010-07-16, 02:03:04,VALID,1002.99,VALID,0,VALID,104,VALID,0,VALID,24.7548,VALID,6,VALID,0.640234,
2010-07-16, 02:04:04,VALID,1002.99,VALID,0,VALID,104,VALID,0,VALID,24.7353,VALID,10,VALID,0.0410156,
2010-07-16, 02:05:04,VALID,1002.99,VALID,0,VALID,104,VALID,0,VALID,24.6945,VALID,12,VALID,0,
2010-07-16, 02:06:04,VALID,1002.98,VALID,0,VALID,104,VALID,0,VALID,24.6945,VALID,12,VALID,0,
2010-07-16, 02:07:04,VALID,1002.98,VALID,0,VALID,104,VALID,0,VALID,24.6964,VALID,12,VALID,0,
2010-07-16, 02:08:04,VALID,1002.98,VALID,0,VALID,104,VALID,0,VALID,24.6945,VALID,12,VALID,0,
2010-07-16, 02:09:04,VALID,1002.97,VALID,0,VALID,104,VALID,0,VALID,24.6556,VALID,12,VALID,0,
2010-07-16, 02:10:04,VALID,1002.95,VALID,0,VALID,104,VALID,0,VALID,24.6556,VALID,360,VALID,0,
2010-07-16, 02:11:04,VALID,1002.94,VALID,0,VALID,104,VALID,0,VALID,24.6166,VALID,360,VALID,0,
2010-07-16, 02:12:04,VALID,1002.92,VALID,0,VALID,104,VALID,0,VALID,24.638,VALID,360,VALID,0,
2010-07-16, 02:13:04,VALID,1002.93,VALID,0,VALID,104,VALID,0,VALID,24.6361,VALID,360,VALID,0,
2010-07-16, 02:14:04,VALID,1002.97,VALID,0,VALID,104,VALID,0,VALID,24.6166,VALID,360,VALID,0,
2010-07-16, 02:15:04,VALID,1002.94,VALID,0,VALID,104,VALID,0,VALID,24.6166,VALID,1,VALID,0,
2010-07-16, 02:16:04,VALID,1002.91,VALID,0,VALID,104,VALID,0,VALID,24.6361,VALID,2,VALID,0,
2010-07-16, 02:17:04,VALID,1002.91,VALID,0,VALID,104,VALID,0,VALID,24.638,VALID,2,VALID,0,
2010-07-16, 02:18:04,VALID,1002.87,VALID,0,VALID,104,VALID,0,VALID,24.6361,VALID,2,VALID,0,
2010-07-16, 02:19:04,VALID,1002.86,VALID,0,VALID,104,VALID,0,VALID,24.6556,VALID,2,VALID,0,
2010-07-16, 02:20:04,VALID,1002.85,VALID,0,VALID,104,VALID,0,VALID,24.6964,VALID,357,VALID,0.407031,
2010-07-16, 02:21:04,VALID,1002.82,VALID,0,VALID,104,VALID,0,VALID,24.7529,VALID,32,VALID,0.848828,
2010-07-16, 02:22:04,VALID,1002.84,VALID,0,VALID,104,VALID,0,VALID,24.8132,VALID,8,VALID,0.926172,
2010-07-16, 02:23:04,VALID,1002.79,VALID,0,VALID,104,VALID,0,VALID,24.8716,VALID,1,VALID,0.897656,
2010-07-16, 02:24:04,VALID,1002.83,VALID,0,VALID,104,VALID,0,VALID,24.9495,VALID,27,VALID,0.569141,
2010-07-16, 02:25:04,VALID,1002.87,VALID,0,VALID,104,VALID,0,VALID,24.9282,VALID,28,VALID,0.516016,
2010-07-16, 02:26:04,VALID,1002.81,VALID,0,VALID,104,VALID,0,VALID,24.9087,VALID,27,VALID,0.659375,
2010-07-16, 02:27:04,VALID,1002.81,VALID,0,VALID,104,VALID,0,VALID,24.8892,VALID,17,VALID,0.772656,
2010-07-16, 02:28:04,VALID,1002.8,VALID,0,VALID,104,VALID,0,VALID,24.969,VALID,51,VALID,0.640234,
2010-07-16, 02:29:04,VALID,1002.8,VALID,0,VALID,104,VALID,0.100563,VALID,24.9866,VALID,47,VALID,0.403125,
2010-07-16, 02:30:04,VALID,1002.83,VALID,0,VALID,104,VALID,0,VALID,24.9885,VALID,47,VALID,0.0449219,
2010-07-16, 02:31:04,VALID,1002.83,VALID,0,VALID,104,VALID,0,VALID,24.9885,VALID,50,VALID,0.361719,
2010-07-16, 02:32:04,VALID,1002.82,VALID,0,VALID,104,VALID,0,VALID,24.9885,VALID,50,VALID,0.294531,
2010-07-16, 02:33:04,VALID,1002.84,VALID,0,VALID,104,VALID,0,VALID,24.9495,VALID,50,VALID,0.375,
2010-07-16, 02:34:04,VALID,1002.86,VALID,0,VALID,104,VALID,0,VALID,24.9087,VALID,60,VALID,0.373047,
2010-07-16, 02:35:04,VALID,1002.86,VALID,0,VALID,104,VALID,0,VALID,24.8697,VALID,59,VALID,0,
2010-07-16, 02:36:04,VALID,1002.83,VALID,0,VALID,104,VALID,0,VALID,24.8716,VALID,59,VALID,0.277344,
2010-07-16, 02:37:04,VALID,1002.84,VALID,0,VALID,104,VALID,0,VALID,24.8911,VALID,58,VALID,0.252344,
2010-07-16, 02:38:04,VALID,1002.82,VALID,0,VALID,104,VALID,0,VALID,24.8911,VALID,58,VALID,0.0667969,
2010-07-16, 02:39:04,VALID,1002.76,VALID,0,VALID,104,VALID,0,VALID,24.8892,VALID,58,VALID,0,
2010-07-16, 02:40:04,VALID,1002.75,VALID,0,VALID,104,VALID,0,VALID,24.9106,VALID,58,VALID,0,
2010-07-16, 02:41:04,VALID,1002.74,VALID,0,VALID,104,VALID,0,VALID,24.93,VALID,55,VALID,0.431641,
2010-07-16, 02:42:04,VALID,1002.75,VALID,0,VALID,104,VALID,0,VALID,24.93,VALID,27,VALID,0.710938,
2010-07-16, 02:43:04,VALID,1002.77,VALID,0,VALID,104,VALID,0,VALID,24.9125,VALID,8,VALID,0.74375,
2010-07-16, 02:44:04,VALID,1002.74,VALID,0,VALID,104,VALID,0,VALID,24.93,VALID,17,VALID,0.566406,
2010-07-16, 02:45:04,VALID,1002.69,VALID,0,VALID,104,VALID,0,VALID,24.93,VALID,26,VALID,0.275,
2010-07-16, 02:46:04,VALID,1002.64,VALID,0,VALID,104,VALID,0,VALID,24.9106,VALID,25,VALID,0.780859,
2010-07-16, 02:47:04,VALID,1002.69,VALID,0,VALID,104,VALID,0,VALID,24.9106,VALID,19,VALID,0.666406,
2010-07-16, 02:48:04,VALID,1002.67,VALID,0,VALID,104,VALID,0,VALID,24.9106,VALID,7,VALID,0.905469,
2010-07-16, 02:49:04,VALID,1002.72,VALID,0,VALID,104,VALID,0,VALID,24.9885,VALID,2,VALID,0.844141,
2010-07-16, 02:50:04,VALID,1002.69,VALID,0,VALID,104,VALID,0,VALID,25.0079,VALID,6,VALID,0.495703,
2010-07-16, 02:51:04,VALID,1002.71,VALID,0,VALID,104,VALID,0,VALID,25.006,VALID,25,VALID,0.308984,
2010-07-16, 02:52:04,VALID,1002.7,VALID,0,VALID,104,VALID,0,VALID,25.0274,VALID,25,VALID,0.321094,
2010-07-16, 02:53:04,VALID,1002.65,VALID,0,VALID,104,VALID,0,VALID,25.0469,VALID,18,VALID,0.869531,
2010-07-16, 02:54:04,VALID,1002.58,VALID,0,VALID,104,VALID,0,VALID,25.0644,VALID,7,VALID,0.864453,
2010-07-16, 02:55:04,VALID,1002.56,VALID,0,VALID,104,VALID,0,VALID,25.1423,VALID,1,VALID,0.924219,
2010-07-16, 02:56:04,VALID,1002.59,VALID,0,VALID,104,VALID,0,VALID,25.2416,VALID,15,VALID,0.773828,
2010-07-16, 02:57:04,VALID,1002.58,VALID,0,VALID,104,VALID,0,VALID,25.2806,VALID,33,VALID,0.372266,
2010-07-16, 02:58:04,VALID,1002.6,VALID,0,VALID,104,VALID,0,VALID,25.2806,VALID,1,VALID,0.009375,
2010-07-16, 02:59:04,VALID,1002.61,VALID,0,VALID,104,VALID,0,VALID,25.2397,VALID,6,VALID,0.39375,
2010-07-16, 03:00:04,VALID,1002.59,VALID,0,VALID,104,VALID,0,VALID,25.2416,VALID,17,VALID,0.542578,
2010-07-16, 03:01:04,VALID,1002.59,VALID,0,VALID,104,VALID,0,VALID,25.2221,VALID,12,VALID,0.798828,
2010-07-16, 03:02:04,VALID,1002.57,VALID,0,VALID,104,VALID,0,VALID,25.2027,VALID,354,VALID,0.490625,
2010-07-16, 03:03:04,VALID,1002.58,VALID,0,VALID,104,VALID,0,VALID,25.1442,VALID,26,VALID,0.775391,
2010-07-16, 03:04:04,VALID,1002.57,VALID,0,VALID,104,VALID,0,VALID,25.0839,VALID,9,VALID,0.705859,
2010-07-16, 03:05:04,VALID,1002.58,VALID,0,VALID,104,VALID,0,VALID,25.1053,VALID,14,VALID,0.804688,
2010-07-16, 03:06:04,VALID,1002.59,VALID,0,VALID,104,VALID,0,VALID,25.0839,VALID,7,VALID,0.677734,
2010-07-16, 03:07:04,VALID,1002.58,VALID,0,VALID,104,VALID,0,VALID,25.0839,VALID,346,VALID,0.63125,
2010-07-16, 03:08:04,VALID,1002.58,VALID,0,VALID,104,VALID,0,VALID,25.0858,VALID,347,VALID,0.466406,
2010-07-16, 03:09:04,VALID,1002.59,VALID,0,VALID,104,VALID,0,VALID,25.0469,VALID,360,VALID,0.587891,
2010-07-16, 03:10:04,VALID,1002.59,VALID,0,VALID,104,VALID,0,VALID,25.0274,VALID,360,VALID,0,
2010-07-16, 03:11:04,VALID,1002.58,VALID,0,VALID,104,VALID,0,VALID,25.006,VALID,335,VALID,0.533203,
2010-07-16, 03:12:04,VALID,1002.58,VALID,0,VALID,104,VALID,0,VALID,25.0255,VALID,6,VALID,0.759375,
2010-07-16, 03:13:04,VALID,1002.56,VALID,0,VALID,104,VALID,0,VALID,25.1034,VALID,349,VALID,1.08555,
2010-07-16, 03:14:04,VALID,1002.58,VALID,0,VALID,104,VALID,0,VALID,25.2416,VALID,317,VALID,0.0832031,
2010-07-16, 03:15:04,VALID,1002.57,VALID,0,VALID,104,VALID,0,VALID,25.2592,VALID,335,VALID,0.787891,
2010-07-16, 03:16:04,VALID,1002.59,VALID,0,VALID,104,VALID,0,VALID,25.3195,VALID,18,VALID,0.850781,
2010-07-16, 03:17:04,VALID,1002.62,VALID,0,VALID,104,VALID,0,VALID,25.3779,VALID,53,VALID,0.209766,
2010-07-16, 03:18:04,VALID,1002.65,VALID,0,VALID,104,VALID,0,VALID,25.3584,VALID,96,VALID,0.594141,
2010-07-16, 03:19:04,VALID,1002.68,VALID,0,VALID,104,VALID,0,VALID,25.3176,VALID,95,VALID,0.349609,
2010-07-16, 03:20:04,VALID,1002.66,VALID,0,VALID,104,VALID,0,VALID,25.339,VALID,95,VALID,0.244922,
2010-07-16, 03:21:04,VALID,1002.66,VALID,0,VALID,104,VALID,0,VALID,25.339,VALID,95,VALID,0.198047,
2010-07-16, 03:22:04,VALID,1002.63,VALID,0,VALID,104,VALID,0,VALID,25.3195,VALID,95,VALID,0.0296875,
2010-07-16, 03:23:04,VALID,1002.66,VALID,0,VALID,104,VALID,0,VALID,25.2611,VALID,36,VALID,0.504297,
2010-07-16, 03:24:04,VALID,1002.68,VALID,0,VALID,104,VALID,0,VALID,25.2221,VALID,22,VALID,0.710156,
2010-07-16, 03:25:04,VALID,1002.7,VALID,0,VALID,104,VALID,0,VALID,25.1618,VALID,1,VALID,0.905469,
2010-07-16, 03:26:04,VALID,1002.65,VALID,0,VALID,104,VALID,0,VALID,25.1034,VALID,11,VALID,0.528125,
2010-07-16, 03:27:04,VALID,1002.68,VALID,0,VALID,104,VALID,0,VALID,25.0839,VALID,24,VALID,1.14414,
2010-07-16, 03:28:04,VALID,1002.66,VALID,0,VALID,104,VALID,0,VALID,25.1637,VALID,28,VALID,1.05234,
2010-07-16, 03:29:04,VALID,1002.71,VALID,0,VALID,104,VALID,0,VALID,25.2611,VALID,30,VALID,1.08516,
2010-07-16, 03:30:04,VALID,1002.71,VALID,0.5,VALID,104,VALID,0,VALID,25.2611,VALID,77,VALID,1.08477,
2010-07-16, 03:31:04,VALID,1002.65,VALID,0.5,VALID,104,VALID,0,VALID,25.2592,VALID,128,VALID,1.00039,
2010-07-16, 03:32:04,VALID,1002.73,VALID,0.5,VALID,104,VALID,0,VALID,25.2611,VALID,105,VALID,1.61953,
2010-07-16, 03:33:04,VALID,1002.71,VALID,1,VALID,104,VALID,0,VALID,25.2611,VALID,106,VALID,1.53008,
2010-07-16, 03:34:04,VALID,1002.74,VALID,0.5,VALID,104,VALID,0,VALID,25.2416,VALID,104,VALID,1.77031,
2010-07-16, 03:35:04,VALID,1002.72,VALID,0,VALID,104,VALID,0,VALID,25.2397,VALID,112,VALID,2.44492,
2010-07-16, 03:36:04,VALID,1002.71,VALID,0.5,VALID,104,VALID,0,VALID,25.2221,VALID,59,VALID,0.935938,
2010-07-16, 03:37:04,VALID,1002.77,VALID,0,VALID,104,VALID,0,VALID,25.2221,VALID,92,VALID,1.12852,
2010-07-16, 03:38:04,VALID,1002.75,VALID,0,VALID,104,VALID,0,VALID,25.1832,VALID,103,VALID,1.01055,
2010-07-16, 03:39:04,VALID,1002.7,VALID,0,VALID,104,VALID,0,VALID,25.1229,VALID,73,VALID,0.6875,
2010-07-16, 03:40:04,VALID,1002.66,VALID,0,VALID,104,VALID,0,VALID,25.0839,VALID,68,VALID,0.544922,
2010-07-16, 03:41:04,VALID,1002.66,VALID,0,VALID,104,VALID,0,VALID,25.0644,VALID,60,VALID,0.291406,
2010-07-16, 03:42:04,VALID,1002.68,VALID,0,VALID,104,VALID,0,VALID,25.006,VALID,15,VALID,0.528906,
2010-07-16, 03:43:04,VALID,1002.71,VALID,0,VALID,104,VALID,0,VALID,24.9885,VALID,66,VALID,0.761719,
2010-07-16, 03:44:04,VALID,1002.71,VALID,0,VALID,104,VALID,0,VALID,24.9885,VALID,85,VALID,0.489844,
2010-07-16, 03:45:04,VALID,1002.75,VALID,0,VALID,104,VALID,0,VALID,24.9495,VALID,100,VALID,0.68125,
2010-07-16, 03:46:04,VALID,1002.72,VALID,0,VALID,104,VALID,0,VALID,24.969,VALID,53,VALID,0.469531,
2010-07-16, 03:47:04,VALID,1002.7,VALID,0.5,VALID,104,VALID,0.100563,VALID,24.9068,VALID,28,VALID,0.185156,
2010-07-16, 03:48:04,VALID,1002.65,VALID,0.5,VALID,104,VALID,0.100563,VALID,24.8892,VALID,36,VALID,1.18125,
2010-07-16, 03:49:04,VALID,1002.62,VALID,0,VALID,104,VALID,0.100563,VALID,24.8113,VALID,41,VALID,0.271094,
2010-07-16, 03:50:04,VALID,1002.58,VALID,0,VALID,104,VALID,0.100563,VALID,24.8113,VALID,10,VALID,0.491016,
2010-07-16, 03:51:04,VALID,1002.59,VALID,0,VALID,104,VALID,0,VALID,24.8095,VALID,9,VALID,0.888672,
2010-07-16, 03:52:04,VALID,1002.65,VALID,0,VALID,104,VALID,0.100563,VALID,24.8503,VALID,29,VALID,0.78125,